This is the latest recevied weather packets stored in our database for station/object DO7ZT-13. If no packets are shown the sender has not sent any weather packets the latest 10 day(s).
| Time | Temp. | Humidity | Pressure | Rain* | Wind** | Luminosity | Snow |
|---|---|---|---|---|---|---|---|
| 1777457125 | 8.89° C | 31% | 1028.3 hPa | 0 mm | 0.89 m/s, 30° | - | - |
| 1777456525 | 8.89° C | 33% | 1028.4 hPa | 0 mm | 0.89 m/s, 318° | - | - |
| 1777455612 | 8.89° C | 33% | 1028.4 hPa | 0 mm | 1.34 m/s, 330° | - | - |
| 1777455337 | 8.89° C | 33% | 1028.4 hPa | 0 mm | 2.24 m/s, 330° | - | - |
| 1777455024 | 8.89° C | 38% | 1028.3 hPa | 0 mm | 0.89 m/s, 24° | - | - |
| 1777454712 | 8.89° C | 35% | 1028.3 hPa | 0 mm | 0.89 m/s, 24° | - | - |
| 1777454425 | 7.78° C | 33% | 1028.3 hPa | 0 mm | 1.79 m/s, 0° | - | - |
| 1777454112 | 7.78° C | 34% | 1028.5 hPa | 0 mm | 1.34 m/s, 0° | - | - |
| 1777453824 | 7.78° C | 36% | 1028.5 hPa | 0 mm | 1.34 m/s, 60° | - | - |
| 1777453512 | 7.78° C | 37% | 1028.5 hPa | 0 mm | 1.34 m/s, 354° | - | - |
| 1777453224 | 7.22° C | 35% | 1028.5 hPa | 0 mm | 1.79 m/s, 78° | - | - |
| 1777452912 | 7.78° C | 34% | 1028.5 hPa | 0 mm | 0.45 m/s, 312° | - | - |
| 1777452624 | 7.78° C | 34% | 1028.5 hPa | 0 mm | 1.34 m/s, 54° | - | - |
| 1777452024 | 7.78° C | 34% | 1028.6 hPa | 0 mm | 1.34 m/s, 72° | - | - |
| 1777451424 | 7.22° C | 36% | 1028.4 hPa | 0 mm | 2.68 m/s, 78° | - | - |
| 1777451112 | 7.22° C | 33% | 1028.4 hPa | 0 mm | 1.79 m/s, 354° | - | - |
| 1777450824 | 7.78° C | 37% | 1028.4 hPa | 0 mm | 1.79 m/s, 72° | - | - |
| 1777450512 | 7.78° C | 36% | 1028.4 hPa | 0 mm | 1.34 m/s, 90° | - | - |
| 1777450224 | 7.22° C | 37% | 1028.4 hPa | 0 mm | 0.89 m/s, 54° | - | - |
| 1777449911 | 7.22° C | 35% | 1028.4 hPa | 0 mm | 1.34 m/s, 336° | - | - |
| 1777449624 | 7.22° C | 36% | 1028.4 hPa | 0 mm | 1.34 m/s, 60° | - | - |
| 1777449311 | 7.22° C | 34% | 1028.4 hPa | 0 mm | 1.34 m/s, 72° | - | - |
| 1777449024 | 7.22° C | 38% | 1028.4 hPa | 0 mm | 0.45 m/s, 55° | - | - |
| 1777448424 | 7.22° C | 40% | 1028.3 hPa | 0 mm | 1.34 m/s, 72° | - | - |
| 1777448112 | 7.22° C | 40% | 1028.3 hPa | 0 mm | 1.79 m/s, 324° | - | - |
* Rain latest hour (hover to see other rain measurements)
** Current wind speed in m/s (hover to see current wind gust speed)